{"data":{"norad_id":68770,"intl_designator":"2026-086E","name":"STARLINK-37417","alt_names":[],"object_type":"PAYLOAD","status":"ACTIVE","operator":null,"country":"US","launch_date":"2026-04-19","launch_site_code":"AFWTR","launch_vehicle":null,"mission":null,"orbit_class":"UNKNOWN","rcs_meters":null,"size_class":null,"mass_kg":null,"dimensions":null,"purposes":["comms"],"wikipedia_slug":null,"has_3d_model":false,"image_url":null,"decayed_at":null,"tle_current":{"epoch":"2026-05-25T04:00:03.998880Z","epoch_age_seconds":64680,"freshness":"FRESH","line1":"1 68770U 26086E   26145.16671295 -.01915149  00000+0 -23959-1 0  9995","line2":"2 68770  97.2848 182.0039 0001424  95.4416 201.3593 15.62949984  6074","mean_motion":15.62949984,"eccentricity":0.0001424,"inclination_deg":97.2848,"raan_deg":182.0039,"arg_perigee_deg":95.4416,"mean_anomaly_deg":201.3593,"bstar":-0.023959,"rev_number":607,"period_min":92.133466505093,"perigee_km":378.17878250404,"apogee_km":380.10325528382,"semimajor_km":6757.2780188939,"source":"CELESTRAK","updated_at":"2026-05-25T13:38:22.034671Z"}}}